• In Latvia
  • List of Countries
  • For 7 days
  • Water Temperature
  • Satellite Maps
  • Weather Map
  • Weather Widgets
  • user-avatar
    Login

    Hourly Weather Viedma

    Today, 18 January, Thursday

    Time Temperature Precipitation Wind Pressure Humidity
    00:00 +23°C° 0 mm 4 mps 754 mmHg 45%
    01:00 +24°C° 0 mm 3 mps 755 mmHg 44%
    02:00 +24°C° 0 mm 2 mps 755 mmHg 43%
    03:00 +24°C° 0 mm 3 mps 755 mmHg 45%
    04:00 +22°C° 0 mm 3 mps 756 mmHg 47%
    05:00 +22°C° 0 mm 4 mps 756 mmHg 49%
    06:00 +23°C° 0 mm 5 mps 756 mmHg 46%
    07:00 +24°C° 0 mm 6 mps 756 mmHg 44%
    08:00 +26°C° 0 mm 7 mps 757 mmHg 41%
    09:00 +27°C° 0 mm 7 mps 757 mmHg 38%
    10:00 +28°C° 0 mm 6 mps 757 mmHg 35%
    11:00 +28°C° 0 mm 6 mps 757 mmHg 32%
    12:00 +29°C° 0 mm 6 mps 757 mmHg 31%
    13:00 +29°C° 0 mm 6 mps 757 mmHg 30%
    14:00 +30°C° 0 mm 6 mps 757 mmHg 29%
    15:00 +30°C° 0 mm 5 mps 756 mmHg 29%
    16:00 +30°C° 0 mm 5 mps 756 mmHg 29%
    17:00 +30°C° 0 mm 4 mps 756 mmHg 29%
    18:00 +29°C° 0 mm 3 mps 756 mmHg 31%
    19:00 +28°C° 0 mm 3 mps 756 mmHg 33%
    20:00 +27°C° 0 mm 2 mps 756 mmHg 35%
    21:00 +26°C° 0 mm 3 mps 756 mmHg 39%
    22:00 +25°C° 0 mm 5 mps 756 mmHg 42%
    23:00 +24°C° 0 mm 6 mps 756 mmHg 45%

    Tomorrow, 19 January, Friday

    Time Temperature Precipitation Wind Pressure Humidity
    00:00 +23°C° 0 mm 6 mps 756 mmHg 45%
    01:00 +23°C° 0 mm 5 mps 756 mmHg 45%
    02:00 +23°C° 0 mm 5 mps 756 mmHg 45%
    03:00 +23°C° 0 mm 4 mps 756 mmHg 45%
    04:00 +23°C° 0 mm 4 mps 756 mmHg 45%
    05:00 +24°C° 0 mm 3 mps 757 mmHg 45%
    06:00 +25°C° 0 mm 4 mps 757 mmHg 40%
    07:00 +27°C° 0 mm 4 mps 757 mmHg 36%
    08:00 +29°C° 0 mm 4 mps 757 mmHg 32%
    09:00 +29°C° 0 mm 4 mps 757 mmHg 31%
    10:00 +30°C° 0 mm 4 mps 757 mmHg 30%
    11:00 +32°C° 0 mm 4 mps 757 mmHg 29%
    12:00 +32°C° 0 mm 4 mps 757 mmHg 29%
    13:00 +33°C° 0 mm 4 mps 757 mmHg 28%
    14:00 +33°C° 0 mm 4 mps 756 mmHg 28%
    15:00 +32°C° 0 mm 4 mps 756 mmHg 29%
    16:00 +32°C° 0 mm 4 mps 756 mmHg 30%
    17:00 +32°C° 0 mm 4 mps 756 mmHg 31%
    18:00 +29°C° 0 mm 4 mps 756 mmHg 34%
    19:00 +28°C° 0 mm 4 mps 756 mmHg 38%
    20:00 +26°C° 0 mm 5 mps 756 mmHg 42%
    21:00 +26°C° 0 mm 5 mps 756 mmHg 45%
    22:00 +25°C° 0 mm 5 mps 756 mmHg 48%
    23:00 +23°C° 0 mm 5 mps 756 mmHg 50%

    Day after tomorrow, 20 January, Saturday

    Time Temperature Precipitation Wind Pressure Humidity
    00:00 +23°C° 0 mm 5 mps 756 mmHg 52%
    01:00 +23°C° 0 mm 5 mps 755 mmHg 54%
    02:00 +22°C° 0 mm 4 mps 755 mmHg 56%
    03:00 +22°C° 0 mm 4 mps 754 mmHg 58%
    04:00 +22°C° 0 mm 4 mps 754 mmHg 60%
    05:00 +22°C° 0 mm 3 mps 754 mmHg 61%
    06:00 +25°C° 0 mm 3 mps 754 mmHg 54%
    07:00 +27°C° 0 mm 3 mps 754 mmHg 46%
    08:00 +29°C° 0 mm 3 mps 754 mmHg 39%
    09:00 +31°C° 0 mm 2 mps 754 mmHg 34%
    10:00 +34°C° 0 mm 2 mps 753 mmHg 29%
    11:00 +36°C° 0 mm 2 mps 753 mmHg 24%
    12:00 +37°C° 0 mm 3 mps 753 mmHg 24%
    13:00 +37°C° 0 mm 4 mps 753 mmHg 24%
    14:00 +38°C° 0 mm 4 mps 752 mmHg 24%
    15:00 +37°C° 0 mm 5 mps 752 mmHg 25%
    16:00 +36°C° 0 mm 6 mps 752 mmHg 27%
    17:00 +35°C° 0 mm 7 mps 751 mmHg 29%
    18:00 +33°C° 0 mm 6 mps 752 mmHg 33%
    19:00 +30°C° 0 mm 6 mps 752 mmHg 38%
    20:00 +28°C° 0 mm 5 mps 752 mmHg 43%
    21:00 +27°C° 0 mm 5 mps 752 mmHg 46%
    22:00 +27°C° 0 mm 4 mps 752 mmHg 50%
    23:00 +26°C° 0 mm 4 mps 753 mmHg 53%

    21 January, Sunday

    Time Temperature Precipitation Wind Pressure Humidity
    00:00 +25°C° 0 mm 4 mps 752 mmHg 56%
    01:00 +25°C° 0 mm 4 mps 752 mmHg 59%
    02:00 +23°C° 0 mm 4 mps 752 mmHg 62%
    03:00 +23°C° 0 mm 5 mps 752 mmHg 63%
    04:00 +23°C° 0 mm 5 mps 751 mmHg 63%
    05:00 +23°C° 0 mm 6 mps 751 mmHg 64%
    06:00 +24°C° 0 mm 6 mps 751 mmHg 60%
    07:00 +26°C° 0 mm 6 mps 751 mmHg 56%
    08:00 +27°C° 0 mm 7 mps 752 mmHg 52%
    09:00 +29°C° 0 mm 6 mps 751 mmHg 46%
    10:00 +32°C° 0 mm 6 mps 751 mmHg 40%
    11:00 +34°C° 0 mm 6 mps 751 mmHg 34%
    12:00 +35°C° 0 mm 6 mps 750 mmHg 32%
    13:00 +36°C° 0 mm 6 mps 750 mmHg 30%
    14:00 +38°C° 0 mm 6 mps 749 mmHg 28%
    15:00 +36°C° 0.1 mm 7 mps 749 mmHg 30%
    16:00 +35°C° 0.1 mm 8 mps 748 mmHg 32%
    17:00 +34°C° 0.1 mm 8 mps 748 mmHg 34%
    18:00 +33°C° 0.5 mm 8 mps 748 mmHg 37%
    19:00 +31°C° 0.5 mm 8 mps 748 mmHg 40%
    20:00 +29°C° 0.5 mm 7 mps 748 mmHg 43%
    21:00 +29°C° 0.2 mm 7 mps 748 mmHg 42%
    22:00 +29°C° 0.2 mm 7 mps 748 mmHg 42%
    23:00 +29°C° 0.2 mm 6 mps 748 mmHg 41%

    22 January, Monday

    Time Temperature Precipitation Wind Pressure Humidity
    00:00 +29°C° 0 mm 5 mps 748 mmHg 42%
    01:00 +28°C° 0 mm 4 mps 747 mmHg 43%
    02:00 +28°C° 0 mm 3 mps 747 mmHg 44%
    03:00 +27°C° 0 mm 2 mps 746 mmHg 46%
    04:00 +27°C° 0 mm 2 mps 746 mmHg 48%
    05:00 +26°C° 0 mm 1 mps 746 mmHg 49%
    06:00 +28°C° 0.1 mm 2 mps 746 mmHg 46%
    07:00 +29°C° 0.1 mm 3 mps 746 mmHg 43%
    08:00 +30°C° 0.1 mm 3 mps 747 mmHg 39%
    09:00 +32°C° 0 mm 4 mps 746 mmHg 39%
    10:00 +33°C° 0 mm 4 mps 746 mmHg 38%
    11:00 +34°C° 0 mm 4 mps 746 mmHg 37%
    12:00 +33°C° 0 mm 5 mps 746 mmHg 39%
    13:00 +33°C° 0 mm 6 mps 746 mmHg 41%
    14:00 +33°C° 0 mm 7 mps 746 mmHg 44%
    15:00 +31°C° 0.5 mm 8 mps 746 mmHg 48%
    16:00 +28°C° 0.5 mm 8 mps 746 mmHg 52%
    17:00 +26°C° 0.5 mm 8 mps 746 mmHg 56%
    18:00 +24°C° 0.1 mm 8 mps 746 mmHg 57%
    19:00 +23°C° 0.1 mm 7 mps 747 mmHg 57%
    20:00 +23°C° 0.1 mm 6 mps 747 mmHg 57%
    21:00 +22°C° 0.5 mm 6 mps 747 mmHg 58%
    22:00 +22°C° 0.5 mm 6 mps 747 mmHg 59%
    23:00 +22°C° 0.5 mm 6 mps 748 mmHg 59%

    23 January, Tuesday

    Time Temperature Precipitation Wind Pressure Humidity
    00:00 +22°C° 0.1 mm 5 mps 748 mmHg 61%
    01:00 +21°C° 0.1 mm 5 mps 748 mmHg 62%
    02:00 +21°C° 0.1 mm 4 mps 748 mmHg 64%
    03:00 +21°C° 0 mm 4 mps 748 mmHg 66%
    04:00 +20°C° 0 mm 4 mps 749 mmHg 68%
    05:00 +20°C° 0 mm 4 mps 749 mmHg 70%
    06:00 +21°C° 0 mm 4 mps 749 mmHg 64%
    07:00 +22°C° 0 mm 5 mps 750 mmHg 58%
    08:00 +23°C° 0 mm 5 mps 750 mmHg 53%
    09:00 +24°C° 0 mm 6 mps 750 mmHg 49%
    10:00 +26°C° 0 mm 6 mps 750 mmHg 44%
    11:00 +27°C° 0 mm 6 mps 751 mmHg 40%
    12:00 +27°C° 0 mm 7 mps 751 mmHg 41%
    13:00 +27°C° 0 mm 7 mps 751 mmHg 41%
    14:00 +27°C° 0 mm 7 mps 752 mmHg 42%
    15:00 +26°C° 0 mm 7 mps 752 mmHg 44%
    16:00 +24°C° 0 mm 7 mps 753 mmHg 46%
    17:00 +24°C° 0 mm 7 mps 753 mmHg 49%
    18:00 +22°C° 0 mm 7 mps 754 mmHg 54%
    19:00 +21°C° 0 mm 7 mps 754 mmHg 60%
    20:00 +20°C° 0 mm 7 mps 755 mmHg 66%
    21:00 +20°C° 0 mm 7 mps 756 mmHg 69%
    22:00 +18°C° 0 mm 7 mps 756 mmHg 72%
    23:00 +18°C° 0 mm 7 mps 757 mmHg 75%
    Show more